| time (UTC) | temp C | wind direction | speed KPH | gust KPH | rain 1hr cm | rain 24hr cm | rain mn cm | humidity % | barometer mb |
| 20260505152018 | 24 | 235 | 4.8 | 12.9 | 0.00 | 0.03 | 0.00 | 54 | 1012.2 |
| 20260505151018 | 24 | 272 | 6.4 | 12.9 | 0.00 | 0.03 | 0.00 | 51 | 1012.1 |
| 20260505125017 | 19 | 281 | 4.8 | 8.0 | 0.00 | 0.05 | 0.00 | 60 | 1013.1 |
| 20260505124017 | 18 | 255 | 3.2 | 8.0 | 0.00 | 0.05 | 0.00 | 62 | 1013.1 |
| 20260505123017 | 18 | 270 | 3.2 | 6.4 | 0.00 | 0.05 | 0.00 | 64 | 1013.1 |
| 20260505122017 | 17 | 273 | 1.6 | 4.8 | 0.00 | 0.05 | 0.00 | 65 | 1013.1 |
| 20260505121017 | 17 | 268 | 3.2 | 6.4 | 0.00 | 0.05 | 0.00 | 67 | 1013.0 |
| 20260505120018 | 16 | 264 | 1.6 | 6.4 | 0.00 | 0.05 | 0.00 | 68 | 1012.9 |
| 20260505115018 | 16 | 283 | 1.6 | 3.2 | 0.00 | 0.05 | 0.00 | 69 | 1012.7 |
| 20260505114018 | 15 | 291 | 1.6 | 4.8 | 0.00 | 0.05 | 0.00 | 70 | 1012.5 |
| 20260505113038 | 15 | 284 | 3.2 | 6.4 | 0.00 | 0.05 | 0.00 | 73 | 1012.3 |
| 20260505112016 | 13 | 278 | 1.6 | 4.8 | 0.00 | 0.05 | 0.00 | 77 | 1012.4 |
| 20260505111056 | 11 | 331 | 1.6 | 3.2 | 0.00 | 0.05 | 0.00 | 85 | 1012.2 |
| 20260505102017 | 11 | 267 | 1.6 | 3.2 | 0.00 | 0.05 | 0.00 | 88 | 1011.3 |
| 20260505101017 | 11 | 79 | 1.6 | 4.8 | 0.00 | 0.05 | 0.00 | 88 | 1011.2 |
| 20260505100017 | 11 | 102 | 1.6 | 3.2 | 0.00 | 0.05 | 0.00 | 90 | 1011.0 |
| 20260505095017 | 11 | 171 | 0.0 | 3.2 | 0.00 | 0.05 | 0.00 | 90 | 1011.0 |
| 20260505094017 | 11 | 341 | 0.0 | 3.2 | 0.00 | 0.05 | 0.00 | 89 | 1010.9 |
| 20260505093038 | 11 | 285 | 0.0 | 3.2 | 0.00 | 0.05 | 0.00 | 89 | 1011.0 |
| 20260505092038 | 11 | 285 | 1.6 | 3.2 | 0.00 | 0.05 | 0.00 | 89 | 1010.9 |
| 20260505091017 | 11 | 77 | 0.0 | 1.6 | 0.00 | 0.05 | 0.00 | 90 | 1011.0 |
| 20260505090017 | 12 | 316 | 0.0 | 3.2 | 0.00 | 0.05 | 0.00 | 89 | 1010.8 |
| 20260505085017 | 12 | 347 | 0.0 | 1.6 | 0.00 | 0.05 | 0.00 | 89 | 1010.9 |
| 20260505084018 | 12 | 155 | 0.0 | 1.6 | 0.00 | 0.05 | 0.00 | 88 | 1010.9 |
| 20260505083018 | 12 | 308 | 1.6 | 3.2 | 0.00 | 0.05 | 0.00 | 88 | 1010.9 |
| 20260505082017 | 12 | 38 | 0.0 | 1.6 | 0.00 | 0.05 | 0.00 | 88 | 1011.0 |
| 20260505081018 | 12 | 6 | 0.0 | 3.2 | 0.00 | 0.05 | 0.00 | 87 | 1011.0 |
| 20260505080019 | 12 | 331 | 0.0 | 1.6 | 0.00 | 0.05 | 0.00 | 87 | 1011.0 |
| 20260505075018 | 13 | 350 | 0.0 | 1.6 | 0.00 | 0.05 | 0.00 | 85 | 1011.0 |
| 20260505074018 | 13 | 321 | 0.0 | 3.2 | 0.00 | 0.05 | 0.00 | 85 | 1010.9 |
| 20260505073016 | 14 | 274 | 0.0 | 3.2 | 0.00 | 0.05 | 0.00 | 84 | 1010.9 |
| 20260505072016 | 14 | 306 | 0.0 | 1.6 | 0.00 | 0.05 | 0.00 | 83 | 1010.9 |
| 20260505071017 | 14 | 295 | 1.6 | 4.8 | 0.00 | 0.05 | 0.00 | 83 | 1010.9 |
| 20260505070016 | 14 | 290 | 1.6 | 3.2 | 0.00 | 0.05 | 0.00 | 82 | 1011.0 |
| 20260505065016 | 14 | 301 | 1.6 | 4.8 | 0.00 | 0.05 | 0.00 | 82 | 1011.0 |
| 20260505064016 | 14 | 289 | 0.0 | 1.6 | 0.00 | 0.05 | 0.00 | 81 | 1010.9 |
| 20260505063016 | 14 | 297 | 0.0 | 3.2 | 0.00 | 0.05 | 0.00 | 80 | 1011.0 |
| 20260505062017 | 14 | 279 | 1.6 | 4.8 | 0.00 | 0.05 | 0.00 | 82 | 1011.0 |
| 20260505061017 | 14 | 312 | 0.0 | 1.6 | 0.00 | 0.05 | 0.00 | 81 | 1010.9 |
| 20260505060017 | 15 | 337 | 0.0 | 1.6 | 0.00 | 0.05 | 0.00 | 80 | 1010.8 |
| 20260505055017 | 15 | 317 | 1.6 | 4.8 | 0.00 | 0.05 | 0.00 | 80 | 1011.0 |
| 20260505054017 | 15 | 287 | 1.6 | 4.8 | 0.00 | 0.05 | 0.00 | 79 | 1011.1 |
| 20260505053057 | 15 | 308 | 1.6 | 4.8 | 0.00 | 0.05 | 0.00 | 79 | 1011.1 |
| 20260505052038 | 15 | 308 | 1.6 | 3.2 | 0.00 | 0.05 | 0.00 | 79 | 1011.2 |
| 20260505051018 | 15 | 292 | 1.6 | 4.8 | 0.00 | 0.05 | 0.00 | 78 | 1011.2 |
| 20260505041015 | 16 | 325 | 1.6 | 4.8 | 0.00 | 0.05 | 0.00 | 73 | 1010.7 |
| 20260505040116 | 16 | 291 | 1.6 | 4.8 | 0.00 | 0.05 | 0.00 | 71 | 1010.7 |
| 20260505035036 | 16 | 234 | 1.6 | 6.4 | 0.00 | 0.05 | 0.05 | 70 | 1010.6 |
| 20260505034016 | 16 | 253 | 1.6 | 9.7 | 0.00 | 0.05 | 0.05 | 69 | 1010.7 |
| 20260505033016 | 16 | 253 | 1.6 | 9.7 | 0.00 | 0.05 | 0.05 | 67 | 1010.8 |
| 20260505032016 | 16 | 269 | 1.6 | 9.7 | 0.00 | 0.05 | 0.05 | 66 | 1010.8 |
| 20260505031016 | 16 | 289 | 3.2 | 6.4 | 0.00 | 0.05 | 0.05 | 66 | 1010.8 |
| 20260505030036 | 16 | 253 | 3.2 | 11.3 | 0.00 | 0.05 | 0.05 | 65 | 1010.8 |
| 20260505025016 | 17 | 222 | 1.6 | 8.0 | 0.00 | 0.05 | 0.05 | 64 | 1010.8 |
| 20260505024016 | 16 | 264 | 1.6 | 6.4 | 0.00 | 0.05 | 0.05 | 65 | 1010.7 |
| 20260505023037 | 16 | 357 | 1.6 | 3.2 | 0.00 | 0.05 | 0.05 | 65 | 1010.7 |
| 20260505022017 | 17 | 312 | 1.6 | 4.8 | 0.00 | 0.05 | 0.05 | 64 | 1010.6 |
| 20260505021017 | 17 | 281 | 1.6 | 3.2 | 0.00 | 0.05 | 0.05 | 64 | 1010.7 |
| 20260505020017 | 17 | 286 | 1.6 | 4.8 | 0.00 | 0.05 | 0.05 | 63 | 1010.8 |
| 20260505015017 | 17 | 297 | 1.6 | 4.8 | 0.00 | 0.05 | 0.05 | 63 | 1010.7 |
| 20260505014017 | 17 | 297 | 1.6 | 6.4 | 0.00 | 0.05 | 0.05 | 62 | 1010.6 |
| 20260505013018 | 17 | 274 | 3.2 | 9.7 | 0.00 | 0.05 | 0.05 | 62 | 1010.5 |
| 20260505012037 | 17 | 287 | 1.6 | 4.8 | 0.00 | 0.05 | 0.05 | 60 | 1010.4 |
| 20260505011018 | 17 | 202 | 1.6 | 4.8 | 0.00 | 0.05 | 0.05 | 59 | 1010.2 |
| 20260505010018 | 17 | 349 | 1.6 | 4.8 | 0.00 | 0.05 | 0.05 | 58 | 1010.2 |
| 20260505005038 | 17 | 275 | 1.6 | 6.4 | 0.00 | 0.05 | 0.05 | 57 | 1010.2 |
| 20260505004018 | 18 | 323 | 1.6 | 4.8 | 0.00 | 0.05 | 0.05 | 56 | 1010.1 |
| 20260505003038 | 18 | 273 | 3.2 | 6.4 | 0.00 | 0.05 | 0.05 | 55 | 1010.1 |
| 20260505002018 | 18 | 252 | 1.6 | 6.4 | 0.00 | 0.05 | 0.05 | 55 | 1010.1 |
| 20260505001016 | 18 | 278 | 3.2 | 6.4 | 0.00 | 0.05 | 0.05 | 54 | 1010.0 |
| 20260505000015 | 18 | 244 | 1.6 | 4.8 | 0.00 | 0.05 | 0.05 | 53 | 1010.0 |
| 20260504235018 | 19 | 289 | 4.8 | 12.9 | 0.00 | 0.05 | 0.05 | 52 | 1010.1 |
| 20260504234016 | 19 | 263 | 4.8 | 11.3 | 0.00 | 0.05 | 0.05 | 50 | 1010.1 |
| 20260504233016 | 20 | 274 | 4.8 | 11.3 | 0.00 | 0.05 | 0.05 | 50 | 1010.1 |
| 20260504232016 | 20 | 252 | 3.2 | 12.9 | 0.00 | 0.05 | 0.05 | 48 | 1010.0 |
| 20260504231016 | 20 | 260 | 6.4 | 16.1 | 0.00 | 0.05 | 0.05 | 47 | 1010.1 |
| 20260504230017 | 21 | 281 | 3.2 | 9.7 | 0.00 | 0.05 | 0.05 | 47 | 1010.1 |
| 20260504225016 | 21 | 266 | 4.8 | 11.3 | 0.00 | 0.05 | 0.05 | 46 | 1010.0 |
| 20260504224016 | 21 | 171 | 3.2 | 19.3 | 0.00 | 0.05 | 0.05 | 44 | 1010.0 |
| 20260504223017 | 21 | 271 | 4.8 | 14.5 | 0.00 | 0.05 | 0.05 | 44 | 1010.2 |
| 20260504222017 | 22 | 271 | 6.4 | 14.5 | 0.00 | 0.05 | 0.05 | 43 | 1010.1 |
| 20260504221017 | 22 | 134 | 6.4 | 24.1 | 0.00 | 0.05 | 0.05 | 42 | 1010.1 |
| 20260504220017 | 22 | 265 | 3.2 | 9.7 | 0.00 | 0.05 | 0.05 | 43 | 1010.1 |
| 20260504215017 | 22 | 263 | 4.8 | 11.3 | 0.00 | 0.05 | 0.05 | 41 | 1010.2 |
| 20260504214018 | 22 | 264 | 6.4 | 19.3 | 0.00 | 0.05 | 0.05 | 42 | 1010.3 |
| 20260504213018 | 22 | 267 | 4.8 | 14.5 | 0.00 | 0.05 | 0.05 | 41 | 1010.3 |
| 20260504212017 | 22 | 261 | 6.4 | 12.9 | 0.00 | 0.05 | 0.05 | 43 | 1010.2 |
| 20260504211018 | 22 | 224 | 4.8 | 14.5 | 0.00 | 0.05 | 0.05 | 41 | 1010.3 |
| 20260504210038 | 22 | 270 | 6.4 | 14.5 | 0.00 | 0.05 | 0.05 | 41 | 1010.3 |
| 20260504205018 | 22 | 244 | 4.8 | 12.9 | 0.00 | 0.05 | 0.05 | 41 | 1010.5 |
| 20260504204018 | 22 | 254 | 4.8 | 11.3 | 0.00 | 0.05 | 0.05 | 43 | 1010.5 |
| 20260504203018 | 22 | 264 | 4.8 | 9.7 | 0.00 | 0.08 | 0.05 | 42 | 1010.5 |
| 20260504202020 | 22 | 123 | 6.4 | 17.7 | 0.00 | 0.08 | 0.05 | 42 | 1010.6 |
| 20260504201056 | 22 | 258 | 6.4 | 16.1 | 0.00 | 0.08 | 0.05 | 42 | 1010.8 |
| 20260504200016 | 22 | 268 | 6.4 | 12.9 | 0.00 | 0.08 | 0.05 | 43 | 1011.0 |
| 20260504195056 | 22 | 211 | 6.4 | 14.5 | 0.00 | 0.08 | 0.05 | 42 | 1011.1 |
| 20260504194016 | 22 | 276 | 8.0 | 17.7 | 0.00 | 0.08 | 0.05 | 42 | 1011.2 |
| 20260504193016 | 22 | 86 | 6.4 | 17.7 | 0.00 | 0.08 | 0.05 | 43 | 1011.4 |
| 20260504192016 | 22 | 115 | 4.8 | 14.5 | 0.00 | 0.08 | 0.05 | 42 | 1011.6 |
| 20260504191016 | 22 | 265 | 4.8 | 12.9 | 0.00 | 0.08 | 0.05 | 42 | 1011.8 |
| 20260504190016 | 22 | 174 | 6.4 | 16.1 | 0.03 | 0.08 | 0.05 | 40 | 1011.8 |
| 20260504185017 | 22 | 262 | 6.4 | 12.9 | 0.03 | 0.08 | 0.05 | 42 | 1012.0 |
| 20260504184041 | 22 | 281 | 8.0 | 19.3 | 0.03 | 0.08 | 0.05 | 44 | 1012.0 |
| 20260504183017 | 22 | 299 | 4.8 | 14.5 | 0.03 | 0.08 | 0.05 | 44 | 1012.1 |
| 20260504182017 | 22 | 255 | 4.8 | 11.3 | 0.03 | 0.08 | 0.05 | 44 | 1012.1 |
| 20260504181017 | 21 | 124 | 4.8 | 14.5 | 0.03 | 0.08 | 0.05 | 43 | 1012.1 |
| 20260504180017 | 21 | 283 | 4.8 | 12.9 | 0.00 | 0.05 | 0.03 | 45 | 1012.5 |
| 20260504175017 | 21 | 124 | 6.4 | 12.9 | 0.00 | 0.05 | 0.03 | 44 | 1012.6 |
| 20260504174018 | 21 | 267 | 6.4 | 14.5 | 0.00 | 0.05 | 0.03 | 45 | 1012.7 |
| 20260504173017 | 21 | 276 | 4.8 | 12.9 | 0.00 | 0.05 | 0.03 | 46 | 1012.9 |
| 20260504172017 | 20 | 79 | 6.4 | 16.1 | 0.00 | 0.05 | 0.03 | 45 | 1013.0 |
| 20260504171018 | 21 | 272 | 4.8 | 11.3 | 0.00 | 0.05 | 0.03 | 45 | 1013.1 |